Terminal Aerodrome Forecast
Issued by NWS

Home | Current Version | Previous Version | Text Only | Print | Product List | Glossary On
Versions: 1 2 3 4 5 6 7 8 9 10 11 12 13 14 15 16 17 18 19 20 21 22 23 24 25 26 27 28 29
434
FTAK31 PAFA 131734
TAFASC
TAF
PASC 131734Z 1318/1418 07035G41KT 1/4SM BLSN FZFG VV005
     FM140300 08029G35KT 1/4SM -SN BLSN FZFG VV008=

USA.gov is the U.S. government's official web portal to all federal, state and local government web resources and services.